Regional Weather Roundup
Issued by NWS

Home | Current Version | Previous Version | Text Only | Print | Product List | Glossary Off
Versions: 1 2 3 4 5 6 7 8 9 10 11 12 13 14 15 16 17 18 19 20 21 22 23 24 25 26 27 28 29 30 31 32 33 34 35 36 37 38 39 40 41 42 43 44 45 46 47 48 49 50

000
ASUS43 KMKX 261111
RWRWI

WISCONSIN REGIONAL WEATHER ROUNDUP
NATIONAL WEATHER SERVICE MILWAUKEE/SULLIVAN WI
600 AM CDT WED APR 26 2017

NOTE: "FAIR" INDICATES FEW OR NO CLOUDS BELOW 12,000 FEET WITH NO
SIGNIFICANT WEATHER AND/OR OBSTRUCTIONS TO VISIBILITY.

WIZ001-002-006>008-014>016-023>028-261200-
NORTHWEST WISCONSIN

CITY           SKY/WX    TMP DP  RH WIND       PRES   REMARKS
SUPERIOR ARPT  LGT SNOW  32  31  96 NE15G26   29.65F WCI  22
ASHLAND        FRZ RAIN  32  30  92 NE18G37   29.62F FOG     WCI  20
HAYWARD        FRZ RAIN  33  30  88 NE16      29.53F WCI  23
SIREN          MIX PCPN  33  32  96 NE15G21   29.53F WCI  23
CUMBERLAND     LGT RAIN  32  32 100 N14       29.49S WCI  22
RICE LAKE      DRIZZLE   37  35  94 N16       29.49F WCI  27
CHETEK         LGT RAIN  39  38  96 NE5       29.47F
LADYSMITH      RAIN      38  36  95 N10       29.49S WCI  30
EAU CLAIRE     CLOUDY    43  41  93 NE13      29.42S
MENOMONIE      CLOUDY    40  40 100 N12       29.44R WCI  33
NEW RICHMOND   LGT RAIN  37  36  97 N12       29.47F WCI  29
OSCEOLA        RAIN      36  36 100 N9G21     29.53S WCI  29
$$

WIZ003>005-009-010-017-018-261200-
NORTH CENTRAL WISCONSIN

CITY           SKY/WX    TMP DP  RH WIND       PRES   REMARKS
MANITOWISH WTR RAIN      34  34 100 NE8       29.51F WCI  27
ARBOR VITAE    LGT RAIN  39  38  94 NE6       29.49F WCI  35
WOODRUFF       LGT RAIN  39  38  94 NE6       29.49F WCI  35
RHINELANDER    LGT RAIN  45  45 100 NE6       29.48F
EAGLE RIVER    LGT RAIN  40  40 100 NE6       29.50F
LAND O LAKES   LGT RAIN  37  37  99 NE7       29.54F WCI  32
PHILLIPS       LGT RAIN  36  36 100 NE10      29.49F WCI  29
TOMAHAWK       LGT RAIN  43  42  97 NE5       29.47F
MEDFORD        LGT RAIN  47  47  97 NE8       29.41F
MERRILL        CLOUDY    53  53 100 E6        29.44F FOG
$$

WIZ029-030-035-036-043>047-261200-
CENTRAL WISCONSIN

CITY           SKY/WX    TMP DP  RH WIND       PRES   REMARKS
WAUSAU         CLOUDY    53  52  96 E9        29.41F FOG
MOSINEE        CLOUDY    54  54 100 E10       29.43F FOG
MARSHFIELD     CLOUDY    56  54  93 E8        29.39F FOG
STEVENS POINT  CLOUDY    53  53 100 E7        29.42F FOG
WAUPACA        CLOUDY    58  56  92 NE5       29.41F
WAUTOMA        PTCLDY    58  55  90 E3        29.41F
WISC RAPIDS    CLOUDY    57  56  96 E7        29.41F
CAMP DOUGLAS   FOG       52  52 100 CALM      29.37F VSB 1/2
$$

WIZ011>013-019>022-031-037>040-048>050-261200-
NORTHEAST WISCONSIN

CITY           SKY/WX    TMP DP  RH WIND       PRES   REMARKS
ANTIGO         CLOUDY    49  49 100 E9        29.46F FOG
SHAWANO        CLOUDY    52  49  92 E9        29.47F
OCONTO         CLOUDY    49  47  95 E3        29.48F
STURGEON BAY   CLOUDY    55  51  86 SE10      29.50F
GREEN BAY      CLOUDY    52  52 100 NE12      29.46F
MANITOWOC      PTCLDY    51  47  86 S12       29.48F
APPLETON       MOCLDY    57  52  82 E5        29.42F
CLINTONVILLE   LGT RAIN  52  50  93 NE8       29.44F
OSHKOSH        PTCLDY    59  52  77 SE8       29.41F
$$

WIZ032>034-041-042-053>061-261200-
SOUTHWEST WISCONSIN

CITY           SKY/WX    TMP DP  RH WIND       PRES   REMARKS
LA CROSSE      CLOUDY    57  55  93 CALM      29.36F
SPARTA         CLOUDY    51  51 100 CALM      29.38S FOG
VIROQUA        CLOUDY    55  55  99 E7        29.37S
BOSCOBEL       CLOUDY    58  56  93 NE5       29.35F
PRAIRIE DU CHI FOG       57  56  97 CALM      29.35F VSB 1/4
PLATTEVILLE    MOCLDY    59  57  94 SE6       29.38S
$$

WIZ056-057-062-063-064-067-068-261200-
SOUTH CENTRAL WISCONSIN

CITY           SKY/WX    TMP DP  RH WIND       PRES   REMARKS
REEDSBURG      CLOUDY    59  54  84 CALM      29.37S
BARABOO/DELLS  CLOUDY    59  52  77 SE3       29.39S
LONE ROCK      CLOUDY    59  54  83 E8        29.37F
MINERAL POINT  MOCLDY    59  55  88 SE9       29.38F
MADISON        CLOUDY    63  54  72 S8        29.39F
MIDDLETON      CLOUDY    62  55  80 SE6       29.39F
WATERTOWN      CLOUDY    59  55  84 SE6       29.42R
MONROE         CLOUDY    61  52  72 SE9       29.39F
JANESVILLE     PTCLDY    63  52  67 S8        29.41F
$$

WIZ051-052-058>065-066-070>072-261200-
SOUTHEAST WISCONSIN

CITY           SKY/WX    TMP DP  RH WIND       PRES   REMARKS
MILWAUKEE      CLOUDY    59  53  80 S8        29.46F
WAUKESHA       PTCLDY    59  52  77 SE12      29.45F
MILWAUKEE/TIMM CLOUDY    59  50  72 SE7       29.45F
RACINE         PTCLDY    54  49  83 S10G20    29.48F
KENOSHA        PTCLDY    58  52  80 SE8       29.46F
FOND DU LAC    CLOUDY    60  51  72 SE13      29.42F
SHEBOYGAN      PTCLDY    51  47  86 SE8       29.46F
WEST BEND      CLOUDY    57  52  82 SE7       29.44F
JUNEAU         MOCLDY    60  53  77 SE8       29.43S
$$

LSZ147-162-261200-
LAKE SUPERIOR

STATION/POSITION TIME  TEMP    WIND        PRES    WAVE
                       AIR SEA DIR/SP/G            HT/PER
                 (UTC) (F)     (DEG/KT/KT) (MB)    (FT/S)
DEVILS ISLAND    1000   32      50/ 23/ 27 1005.9F
PORT WING        1040   33      50/ 23/ 44 1004.4F
SAXON HARBOR     1102   34      30/ 24/ 26 1002.7
$$

LMZ867-665-643>646-261200-
LAKE MICHIGAN

STATION/POSITION TIME  TEMP    WIND        PRES    WAVE
                       AIR SEA DIR/SP/G            HT/PER
                 (UTC) (F)     (DEG/KT/KT) (MB)    (FT/S)
CHAMBERS ISLAND  1040   40      20/  9/ 13  999.3F
N MID LAKE BUOY  1050   43 37  110/ 10/ 12 1000.8F   2/ 4
NORTHPORT PIER   1040   42     110/  5/  7 1000.0F
KEWAUNEE LAKESHO 1048   50     180/ 10/ 12  998.5F
SHEBOYGAN LAKESH 1100   47     170/  8/ 10  998.0F
PORT WASHINGTON  1040   48     140/  3/  4  999.0F
MILWAUKEE LAKESH 1050   50     150/ 12/ 14   N/A
S MID LAKE BUOY  0950   48 41  120/ 12/ 16  999.6F   1/ 3
KENOSHA   LAKESH 1100   51     180/ 10/ 14  998.3
$$

TC  - TEMPERATURE IN CELSIUS
VSB - VISIBILITY IN STATUTE MILES
WCI - WIND CHILL INDEX
HX  - HEAT INDEX




USA.gov is the U.S. government's official web portal to all federal, state and local government web resources and services.